Tracking 29782 objects as of 13-Oct-2024
HD Live streaming from Space Station
objects crossing your sky now

BLOCK DM-SL R/B

Track BLOCK DM-SL R/B now!


NORAD ID: 36107
Int'l Code: 2009-067B
Perigee: 9,978.0 km
Apogee: 35,769.6 km
Inclination: 13.2 °
Period: 829.5 minutes
Semi major axis: 29244 km
RCS: 12.5893 m2 (large)
Launch date: November 30, 2009
Source: Commonwealth of Independent States (former USSR) (CIS)
Launch site: TYURATAM MISSILE AND SPACE COMPLEX (TTMTR)

Note: This is a ROCKET BODY
Your satellite tracking list
Your tracking list is empty




NASA's NSSDC Master Catalog

Two Line Element Set (TLE):
1 36107U 09067B   24286.28451851 -.00000104  00000-0  00000-0 0  9991
2 36107  13.2443 348.4565 4409595  72.3198 329.2015  1.73592141 94274
Source of the keplerian elements: AFSPC